Kodiak Airport
PADQ : now visible

Airfield :











YOU CAN JOIN US ON...

 
LOGIN :

Register | Disclaimer

   EN    FR    IT 

 









Legend :    VFR   Marginal VFR   IFR   Intensive IFR   Very Intensive IFR
Visi :
Ceiling :
>= 8 km
>= 3000ft
5 to 8 km
1000 to 3000 ft
1500m to 5 km
500 to 1000 ft
800 to 1500m
200 to 500 ft
< 800m
< 200 ft
Symbols :   Thunderstorms  Fog  Heavy snow  Heavy precipitations  Wind > 20 kt






- Airport Elevation : 78 ft
- IATA code : ADQ


PADQ - Kodiak

CURRENT METAR :
  • 272253Z VRB06G14KT 10SM SCT042 SCT049 08/00 A2997 RMK AO2 SLP148 T00830000

EXPIRED METARs :
  • 272153Z 27009KT 10SM FEW046 08/M02 A2997 RMK AO2 SLP148 T00831017 $
  • 272053Z 28007G14KT 10SM CLR 09/M02 A2997 RMK AO2 SLP147 T00941017 51009 $

TAF PADQ
Valid from the 27 at 18:00 until the 28 at 18:00 UTC


271730Z 2718/2818 26007KT P6SM SKC
FM272000 29015KT P6SM SKC
FM280300 28006KT P6SM SKC
PAZA FIR / North America



MET'MAP, your aeronautical weather chart ! - Copyright ORBIFLY December 2007 - Disclaimer

ORBIFLY MET'MAP TEAM :

Programming & Development : Alexandra Zaïnal
Concept & original design : Baudouin d'Aumeries
Assistance for programming : Marc-Olivier Méhu
Technical & hardware support : Manuel Goepfert

Contact : metmap@orbifly.com




SOURCES & CREDITS :

   NOAA       Earth
Advisory